Tracking 31027 objects as of 19-Jul-2025
HD Live streaming from Space Station
objects crossing your sky now

FENGYUN 1C DEB

Track FENGYUN 1C DEB now!
10-day predictions


NORAD ID: 35165
Int'l Code: 1999-025DMV
Perigee: 776.3 km
Apogee: 810.1 km
Inclination: 98.9 °
Period: 100.6 minutes
Semi major axis: 7164 km
RCS: 0.0024 m2 (small)
Launch date: May 10, 1999
Source: People's Republic of China (PRC)
Launch site: Taiyaun Space Center, China (TSC)

Note: This is SATELLITE DEBRIS
Your satellite tracking list
PRISMA
Track 1 satellite(s)




NASA's NSSDC Master Catalog

Two Line Element Set (TLE):
1 35165U 99025DMV 25193.19186063  .00002839  00000-0  10781-2 0  9990
2 35165  98.8832 281.3783 0023559 146.1012 214.1681 14.31698399875221
Source of the keplerian elements: AFSPC